{"data":{"norad_id":68010,"epoch":"2026-09-20T01:43:15.591072Z","epoch_age_seconds":96529,"freshness":"FRESH","line1":"1 68010U 26039AA  26263.07170823  .00000922  00000+0  43043-4 0  9992","line2":"2 68010  43.0046  30.9743 0001312 277.3092  82.7611 15.27566797 31438","mean_motion":15.27566797,"eccentricity":0.0001312,"inclination_deg":43.0046,"raan_deg":30.9743,"arg_perigee_deg":277.3092,"mean_anomaly_deg":82.7611,"bstar":4.3043e-5,"rev_number":3143,"period_min":94.267563475982,"perigee_km":482.18843805339,"apogee_km":483.98882365893,"semimajor_km":6861.2256308562,"source":"CELESTRAK","updated_at":"2026-09-20T09:00:43.739990Z"}}